Dewpoint
27 29 30 31 30 30 29 29 29 30 30 29 29 28 29 28 28 29 30 31 32 33 33 32 32 31 31 31 31 31 32 32 32 32 32 32 32 33 33 33 33 32 32 32 32 32 32 32 33 33 34 34 34 35 35 35 36 37 38 38 39 39 39 39 39 39 39 39 39
26 27 27 29 29 30 29 28 29 30 31 31 30 30 29 29 29 29 29 30 32 33 33 32 31 31 31 31 31 32 32 32 32 32 32 32 32 32 33 33 33 32 32 32 32 33 33 33 34 35 36 36 37 37 37 36 38 39 39 39 40 40 40 39 39 38 38 37 37
25 26 26 28 29 29 29 28 28 28 29 30 30 30 29 29 29 29 29 30 30 31 32 31 30 30 31 31 31 32 32 32 32 32 32 32 32 32 32 32 32 32 32 33 33 33 34 35 36 36 37 38 38 38 38 38 39 39 39 39 39 39 39 39 37 36 36 37 36
25 26 27 28 28 28 28 28 28 29 29 30 28 28 28 29 29 29 29 29 30 30 31 30 29 30 30 31 31 31 31 31 31 31 31 31 31 32 32 32 32 32 33 33 34 34 35 36 37 38 38 38 37 38 38 38 38 38 38 37 37 37 37 37 36 36 36 35 33
25 26 27 28 28 28 29 29 29 30 30 29 28 28 27 27 28 28 29 29 30 31 31 30 29 29 30 31 31 31 31 32 31 31 31 31 31 31 31 31 31 31 32 33 34 35 36 37 38 38 38 37 37 37 36 36 35 35 36 37 37 37 37 36 35 34 32 30 28
25 25 26 28 29 30 30 30 30 30 30 29 28 27 28 29 30 30 30 30 31 31 31 30 29 30 31 32 31 31 31 31 32 31 30 30 30 30 30 30 30 30 30 31 32 34 35 37 38 38 38 38 37 35 34 33 31 31 31 31 30 30 29 28 27 27 27 27 27
24 24 25 26 27 28 29 29 30 30 30 29 29 28 28 29 29 30 30 31 31 30 30 30 30 31 31 30 30 30 31 31 31 31 30 30 30 29 29 29 29 29 29 29 30 32 34 35 36 35 34 33 31 30 29 28 28 28 27 27 28 28 28 27 27 27 27 26 26
23 23 23 24 25 26 27 27 29 30 31 30 30 30 30 30 30 31 32 32 30 29 29 29 30 30 30 29 29 29 29 29 30 30 30 30 29 29 28 28 28 28 27 27 28 29 30 31 30 29 28 28 28 28 28 26 26 26 26 26 27 27 26 25 25 25 25 25 25
22 22 22 22 23 25 26 27 29 30 30 31 30 31 31 31 31 31 31 30 29 28 28 28 29 29 29 28 28 28 28 27 28 29 29 29 27 27 27 27 27 26 26 26 27 27 27 27 27 26 27 27 27 26 26 25 25 24 25 25 25 25 25 25 25 25 24 23 23
22 22 22 23 25 26 26 28 29 30 31 31 31 32 32 32 32 32 31 30 28 28 28 27 27 27 27 27 26 26 26 26 26 26 26 26 26 26 25 26 25 25 25 25 26 26 26 26 25 24 25 26 25 25 25 25 24 23 24 24 23 23 22 23 23 23 23 22 22
22 22 23 24 26 26 27 29 29 30 30 30 30 31 32 32 32 31 30 28 28 27 27 26 26 26 25 25 25 25 25 26 26 26 26 26 26 26 25 25 25 25 24 23 25 25 25 25 24 23 23 25 25 25 25 24 23 22 21 21 21 21 20 21 21 21 21 21 21
22 23 23 24 25 25 26 28 27 27 27 27 27 29 30 31 31 30 28 28 28 26 25 25 25 25 25 25 25 25 25 25 26 26 26 26 25 25 25 25 24 23 23 23 25 25 24 24 23 23 23 24 25 25 24 22 21 20 20 19 19 19 19 18 19 19 19 19 20
22 23 23 24 24 25 25 26 25 25 25 25 24 25 26 28 29 28 27 27 26 25 25 25 25 25 24 24 24 25 25 26 26 26 25 25 25 25 24 24 23 22 22 25 25 25 24 24 23 23 23 24 25 24 23 21 20 19 18 18 18 18 18 18 18 18 18 19 19
22 23 23 24 24 24 24 24 24 24 24 24 24 24 25 26 27 27 26 26 25 25 25 25 25 25 25 24 25 25 26 26 26 25 25 24 24 23 22 22 21 21 22 25 25 25 24 23 23 23 23 23 23 21 21 19 18 18 17 17 17 17 17 17 17 17 17 18 18
22 23 23 24 24 24 24 24 24 25 25 24 24 24 24 25 26 27 27 25 25 26 26 25 25 25 25 25 26 26 26 26 25 25 24 23 22 21 21 21 21 21 21 23 25 25 24 23 23 23 23 22 21 20 19 18 17 17 17 17 17 17 17 17 17 17 17 17 17
22 23 24 24 24 24 24 24 24 25 25 24 23 23 24 24 25 26 27 26 26 26 26 25 25 25 26 27 27 27 26 26 25 24 24 22 21 21 21 21 21 21 21 21 22 23 24 24 24 24 23 21 20 19 18 17 16 16 16 16 16 16 16 17 17 16 16 17 17
22 23 24 24 24 24 24 24 24 25 25 24 23 24 24 25 25 26 26 26 26 26 25 25 25 26 27 28 29 28 27 26 25 24 23 22 22 21 21 21 21 21 21 20 20 20 21 25 25 24 22 21 20 18 17 16 16 16 16 16 16 16 16 17 17 16 16 16 17
23 23 23 24 24 24 24 24 24 24 24 24 24 24 25 25 25 25 25 26 26 26 25 25 26 26 27 28 29 28 27 26 25 25 24 23 22 22 22 22 21 21 21 20 20 19 20 23 24 23 21 20 19 18 17 16 16 16 16 16 16 16 16 16 16 16 16 17 17
23 23 23 23 23 24 24 24 24 24 24 24 24 24 24 24 24 24 25 26 27 27 26 26 26 27 27 28 28 28 27 26 25 25 24 24 23 23 23 23 22 21 21 20 20 20 21 25 23 22 21 20 18 17 16 16 15 15 16 16 16 16 16 16 16 16 16 17 17
23 23 23 23 23 23 24 25 25 25 24 24 24 24 24 23 23 23 24 25 27 27 27 26 26 27 28 28 27 27 27 27 26 25 25 25 25 24 24 23 22 21 21 20 20 21 22 24 22 21 20 19 17 16 16 15 15 16 16 16 16 16 16 16 16 17 17 17 17
23 23 23 23 24 24 25 25 25 25 25 25 25 24 24 24 23 23 24 25 27 28 27 26 27 27 27 27 27 27 27 27 27 26 26 25 25 25 25 24 22 21 20 20 21 22 23 22 22 21 20 18 17 16 16 16 16 16 16 16 16 16 16 16 17 17 17 17 17
23 23 24 25 25 25 26 25 25 25 25 25 25 25 25 24 24 24 25 26 28 28 28 28 28 28 28 28 28 28 28 28 28 27 27 26 26 25 25 24 21 21 21 23 23 24 23 22 21 20 19 17 16 16 16 16 16 16 16 16 16 16 16 17 17 17 17 17 17
24 25 26 27 27 27 27 26 25 25 25 25 25 25 25 24 24 25 26 27 28 28 29 30 30 29 28 28 28 28 28 28 27 26 26 25 25 25 24 22 21 22 24 25 24 23 22 21 20 19 17 16 16 17 17 17 16 16 16 16 16 16 17 17 17 17 17 17 17
26 27 28 28 28 27 26 25 25 25 25 26 25 25 25 24 24 24 25 26 26 28 29 30 30 30 29 29 29 28 27 27 26 25 25 25 25 24 22 21 22 25 26 26 26 25 23 21 19 18 17 17 17 17 18 17 17 16 16 16 16 17 17 17 17 17 17 17 17
28 29 29 29 28 27 26 25 25 25 26 26 25 25 25 24 24 24 25 27 29 30 30 30 29 29 29 29 29 28 28 26 26 25 25 25 24 23 21 21 23 25 27 28 30 29 26 24 21 20 18 18 18 18 18 17 17 16 16 16 16 16 16 16 16 16 17 17 16
29 29 29 29 29 27 26 25 25 25 26 26 25 25 25 24 25 26 28 30 30 30 30 29 28 28 29 29 29 28 28 27 26 25 25 25 24 22 21 21 23 25 26 29 30 30 29 28 25 23 20 18 18 18 17 17 16 16 16 16 16 16 16 16 16 16 17 17 16
29 29 29 29 28 27 25 25 26 26 26 26 25 25 25 25 28 30 30 30 29 29 28 28 27 28 28 29 28 28 27 26 26 25 25 24 23 21 21 22 24 25 26 29 30 30 29 27 26 25 22 19 19 18 17 16 16 16 16 15 15 15 15 16 16 17 17 17 16
29 29 28 27 26 26 26 26 26 26 26 26 25 26 27 29 30 30 30 29 28 28 27 27 27 28 29 29 28 26 25 24 24 24 24 23 22 21 21 23 25 26 28 30 30 29 27 25 25 25 24 21 19 18 17 16 15 15 14 14 15 15 16 16 16 17 17 17 16
29 28 27 26 25 26 26 27 26 26 26 25 27 29 30 31 31 30 30 29 28 28 28 28 28 29 29 29 27 25 24 23 23 23 23 21 21 21 23 25 26 28 29 30 29 28 27 26 25 24 24 23 20 18 16 15 14 14 14 15 15 16 16 17 17 17 17 17 17
27 26 25 25 25 26 26 26 26 25 26 27 30 31 32 32 31 30 30 29 28 29 29 30 30 29 28 27 26 25 25 24 24 23 21 19 20 21 22 25 26 28 29 30 29 28 27 26 25 24 23 23 21 18 16 16 15 15 16 16 16 16 17 17 17 17 17 17 17
25 25 25 25 26 26 26 26 26 27 28 30 32 32 32 31 31 30 30 29 29 29 30 30 29 28 28 27 26 25 25 25 24 22 20 18 20 21 22 25 26 27 29 29 29 28 27 26 25 25 24 25 22 19 16 16 16 16 16 16 16 17 17 17 17 17 17 17 17
25 25 25 25 26 26 26 26 27 29 31 33 33 32 32 31 31 31 30 30 30 30 30 30 29 28 27 27 26 25 25 25 23 21 20 19 19 19 21 23 25 26 28 29 29 28 27 26 25 25 24 25 23 19 16 16 16 16 16 16 16 16 17 17 17 17 17 17 17
25 25 25 26 26 26 26 28 30 32 33 33 32 32 31 31 31 31 30 30 30 30 30 29 28 28 27 26 25 25 25 24 23 21 21 20 20 21 21 22 24 26 28 29 29 28 27 26 25 25 25 26 22 19 16 16 16 16 16 16 16 17 17 17 17 18 17 17 17
25 26 26 26 26 27 28 31 33 33 33 31 30 30 30 30 31 30 30 30 30 30 29 29 28 28 27 26 25 24 24 24 23 22 21 21 21 21 21 21 23 26 29 29 29 28 27 26 25 25 25 26 21 17 16 16 16 16 16 16 17 17 17 17 17 17 17 16 16
26 26 27 27 27 29 31 33 32 31 30 29 29 30 30 30 30 30 30 30 30 29 29 29 28 28 27 26 25 25 24 24 23 22 22 22 22 22 22 21 23 26 29 30 29 28 27 26 25 25 24 23 18 16 15 15 15 16 16 16 17 17 17 17 17 17 16 16 16
26 27 29 29 31 32 33 31 30 29 29 30 30 30 31 31 31 30 30 30 30 29 29 28 28 27 27 26 25 25 25 24 23 22 22 22 22 22 22 22 24 26 29 30 29 28 27 26 25 25 24 21 16 15 15 15 16 16 16 16 17 17 18 18 17 16 16 15 14
26 28 30 32 33 31 30 28 28 28 28 29 30 30 30 31 31 30 30 30 29 29 28 28 28 27 26 26 25 25 25 25 24 23 22 22 22 22 22 22 24 26 28 29 28 28 27 26 25 25 23 18 16 15 15 16 16 16 16 17 17 18 18 17 16 15 14 13 15
28 30 32 32 30 27 26 27 29 29 28 29 30 30 31 31 30 30 30 29 29 28 28 28 27 27 26 25 25 25 25 26 24 22 21 21 21 21 22 22 23 25 27 29 28 28 27 26 25 25 22 16 15 15 16 16 16 16 17 17 17 18 17 16 15 15 14 14 17
30 30 29 27 25 25 25 26 27 28 29 29 30 30 30 30 30 30 30 29 28 28 27 27 26 26 25 25 25 25 25 25 23 22 21 20 21 22 22 22 23 25 26 28 28 28 27 26 25 25 22 17 16 16 16 16 16 16 16 17 17 17 16 16 15 15 14 14 20
28 26 25 24 24 24 25 25 25 27 29 30 30 29 29 29 29 29 29 28 28 28 27 26 26 25 25 25 25 25 24 24 23 22 21 20 22 24 25 22 23 24 26 28 28 28 27 26 25 25 23 17 16 16 16 16 16 16 16 16 16 16 16 15 15 15 14 14 17
25 24 23 24 24 25 25 25 25 27 28 28 27 27 28 28 28 28 28 28 28 27 27 26 26 25 25 25 25 24 24 23 23 22 21 21 24 25 25 21 22 24 25 27 28 28 27 26 26 25 24 18 16 16 16 16 15 15 15 16 16 15 15 15 15 14 14 14 14